H1 CPF 2 NER 2022 9 1 9 244 01 glonass140 H2 1903001 9140 44299 2022 9 1 0 0 0 2022 9 4 23 45 0 900 1 1 0 0 0 1 H9 10 0 59823 0.00000 0 2952119.413 25077876.842 -3637297.576 10 0 59823 900.00000 0 2940838.533 24419196.564 -6759166.317 10 0 59823 1800.00000 0 2774872.569 23402186.274 -9749710.991 10 0 59823 2700.00000 0 2412127.687 22065148.776 -12550745.460 10 0 59823 3600.00000 0 1819180.435 20456230.706 -15107721.156 10 0 59823 4500.00000 0 972954.101 18631450.934 -17370797.927 10 0 59823 5400.00000 0 -138041.679 16652414.475 -19295825.289 10 0 59823 6300.00000 0 -1512962.743 14583807.457 -20845214.137 10 0 59823 7200.00000 0 -3138407.486 12490778.306 -21988680.994 10 0 59823 8100.00000 0 -4988730.925 10436315.126 -22703849.538 10 0 59823 9000.00000 0 -7026884.611 8478729.569 -22976696.944 10 0 59823 9900.00000 0 -9205748.802 6669353.101 -22801835.646 10 0 59823 10800.00000 0 -11469902.353 5050542.541 -22182624.518 10 0 59823 11700.00000 0 -13757756.989 3654078.600 -21131106.835 10 0 59823 12600.00000 0 -16003966.873 2500024.559 -19667775.925 10 0 59823 13500.00000 0 -18142012.530 1596092.472 -17821172.950 10 0 59823 14400.00000 0 -20106850.544 937542.666 -15627324.703 10 0 59823 15300.00000 0 -21837517.383 507619.567 -13129032.730 10 0 59823 16200.00000 0 -23279577.623 278503.813 -10375028.159 10 0 59823 17100.00000 0 -24387313.387 212738.604 -7419009.553 10 0 59823 18000.00000 0 -25125562.804 265067.966 -4318583.598 10 0 59823 18900.00000 0 -25471130.465 384607.052 -1134130.494 10 0 59823 19800.00000 0 -25413711.125 517250.581 2072382.636 10 0 59823 20700.00000 0 -24956288.835 608215.688 5238615.913 10 0 59823 21600.00000 0 -24114996.064 604610.060 8303073.842 10 0 59823 22500.00000 0 -22918440.327 457915.638 11206301.060 10 0 59823 23400.00000 0 -21406528.210 126282.360 13892033.082 10 0 59823 24300.00000 0 -19628837.662 -423465.085 16308279.922 10 0 59823 25200.00000 0 -17642607.921 -1214191.890 18408322.230 10 0 59823 26100.00000 0 -15510431.955 -2257257.494 20151601.646 10 0 59823 27000.00000 0 -13297747.959 -3551809.419 21504489.621 10 0 59823 27900.00000 0 -11070234.085 -5084595.778 22440921.443 10 0 59823 28800.00000 0 -8891213.965 -6830304.109 22942884.823 10 0 59823 29700.00000 0 -6819179.443 -8752412.595 23000755.201 10 0 59823 30600.00000 0 -4905531.600 -10804518.843 22613472.526 10 0 59823 31500.00000 0 -3192632.015 -12932091.880 21788556.935 10 0 59823 32400.00000 0 -1712243.151 -15074575.944 20541963.419 10 0 59823 33300.00000 0 -484420.868 -17167760.251 18897778.129 10 0 59823 34200.00000 0 483096.307 -19146317.933 16887761.556 10 0 59823 35100.00000 0 1194976.865 -20946410.253 14550746.404 10 0 59823 36000.00000 0 1667861.873 -22508249.188 11931900.444 10 0 59823 36900.00000 0 1929424.778 -23778512.621 9081867.175 10 0 59823 37800.00000 0 2016964.804 -24712512.056 6055799.457 10 0 59823 38700.00000 0 1975592.661 -25276022.364 2912303.452 10 0 59823 39600.00000 0 1856084.487 -25446696.581 -287687.674 10 0 59823 40500.00000 0 1712494.145 -25215005.613 -3482089.215 10 0 59823 41400.00000 0 1599624.532 -24584662.183 -6608867.209 10 0 59823 42300.00000 0 1570464.919 -23572509.730 -9607244.084 10 0 59823 43200.00000 0 1673703.301 -22207879.355 -12418884.055 10 0 59823 44100.00000 0 1951419.994 -20531440.248 -14989034.652 10 0 59823 45000.00000 0 2437061.421 -18593590.571 -17267601.384 10 0 59823 45900.00000 0 3153781.560 -16452455.194 -19210133.852 10 0 59823 46800.00000 0 4113223.127 -14171573.539 -20778703.204 10 0 59823 47700.00000 0 5314792.100 -11817374.041 -21942652.979 10 0 59823 48600.00000 0 6745458.332 -9456540.907 -22679207.901 10 0 59823 49500.00000 0 8380092.712 -7153383.496 -22973928.046 10 0 59823 50400.00000 0 10182328.436 -4967318.711 -22820998.828 10 0 59823 51300.00000 0 12105911.607 -2950572.003 -22223350.635 10 0 59823 52200.00000 0 14096485.500 -1146193.332 -21192605.290 10 0 59823 53100.00000 0 16093734.025 413528.819 -19748850.088 10 0 59823 54000.00000 0 18033794.595 1708189.319 -17920243.657 10 0 59823 54900.00000 0 19851838.825 2729877.860 -15742461.361 10 0 59823 55800.00000 0 21484712.122 3483255.402 -13257991.379 10 0 59823 56700.00000 0 22873520.635 3985094.013 -10515295.736 10 0 59823 57600.00000 0 23966056.148 4263301.376 -7567853.434 10 0 59823 58500.00000 0 24718956.428 4355473.231 -4473105.415 10 0 59823 59400.00000 0 25099509.934 4307037.229 -1291323.115 10 0 59823 60300.00000 0 25087029.105 4169068.918 1915576.111 10 0 59823 61200.00000 0 24673734.952 3995874.316 5085242.359 10 0 59823 62100.00000 0 23865116.740 3842443.154 8156110.711 10 0 59823 63000.00000 0 22679752.778 3761881.869 11068598.564 10 0 59823 63900.00000 0 21148601.291 3802935.699 13766259.106 10 0 59823 64800.00000 0 19313792.408 4007704.930 16196868.701 10 0 59823 65700.00000 0 17226973.051 4409651.516 18313427.772 10 0 59823 66600.00000 0 14947274.720 5031979.597 20075056.734 10 0 59823 67500.00000 0 12538989.343 5886457.386 21447771.111 10 0 59823 68400.00000 0 10069049.719 6972729.250 22405122.445 10 0 59823 69300.00000 0 7604418.665 8278146.286 22928694.233 10 0 59823 70200.00000 0 5209493.966 9778122.332 23008444.884 10 0 59823 71100.00000 0 2943635.075 11437000.765 22642892.365 10 0 59823 72000.00000 0 858912.279 13209396.591 21839137.813 10 0 59823 72900.00000 0 -1001830.435 15041958.956 20612728.074 10 0 59823 73800.00000 0 -2606520.414 16875482.145 18987359.702 10 0 59823 74700.00000 0 -3934946.755 18647278.673 16994429.519 10 0 59823 75600.00000 0 -4979352.197 20293717.284 14672439.445 10 0 59823 76500.00000 0 -5744502.770 21752821.563 12066265.709 10 0 59823 77400.00000 0 -6247232.779 22966821.863 9226305.191 10 0 59823 78300.00000 0 -6515484.349 23884554.739 6207513.917 10 0 59823 79200.00000 0 -6586881.626 24463609.764 3068354.938 10 0 59823 80100.00000 0 -6506899.231 24672133.494 -130325.033 10 0 59823 81000.00000 0 -6326701.715 24490214.146 -3326469.235 10 0 59823 81900.00000 0 -6100744.901 23910787.611 -6458012.398 10 0 59823 82800.00000 0 -5884240.389 22940025.131 -9464086.823 10 0 59823 83700.00000 0 -5730590.682 21597184.623 -12286209.356 10 0 59823 84600.00000 0 -5688904.112 19913929.983 -14869425.631 10 0 59823 85500.00000 0 -5801695.728 17933145.301 -17163388.564 10 0 59824 0.00000 0 -6102872.731 15707292.403 -19123349.135 10 0 59824 900.00000 0 -6616091.533 13296378.153 -20711040.315 10 0 59824 1800.00000 0 -7353557.225 10765618.916 -21895433.428 10 0 59824 2700.00000 0 -8315318.601 8182895.438 -22653354.975 10 0 59824 3600.00000 0 -9489089.990 5616107.345 -22969948.406 10 0 59824 4500.00000 0 -10850609.195 3130536.823 -22838972.307 10 0 59824 5400.00000 0 -12364517.865 786331.949 -22262928.437 10 0 59824 6300.00000 0 -13985728.299 -1363784.987 -21253016.657 10 0 59824 7200.00000 0 -15661219.781 -3276488.255 -19828917.315 10 0 59824 8100.00000 0 -17332189.079 -4919416.360 -18018405.184 10 0 59824 9000.00000 0 -18936464.506 -6272271.521 -15856802.482 10 0 59824 9900.00000 0 -20411081.360 -7327405.748 -13386281.983 10 0 59824 10800.00000 0 -21694909.678 -8089870.317 -10655034.295 10 0 59824 11700.00000 0 -22731222.833 -8576928.347 -7716316.340 10 0 59824 12600.00000 0 -23470098.000 -8817053.062 -4627400.648 10 0 59824 13500.00000 0 -23870546.850 -8848456.368 -1448447.126 10 0 59824 14400.00000 0 -23902286.422 -8717212.225 1758679.483 10 0 59824 15300.00000 0 -23547075.723 -8475056.442 4931622.136 10 0 59824 16200.00000 0 -22799562.291 -8176957.933 8008749.380 10 0 59824 17100.00000 0 -21667603.921 -7878565.792 10930354.247 10 0 59824 18000.00000 0 -20172053.130 -7633641.220 13639810.371 10 0 59824 18900.00000 0 -18346014.520 -7491583.340 16084663.086 10 0 59824 19800.00000 0 -16233607.174 -7495153.394 18217634.958 10 0 59824 20700.00000 0 -13888284.646 -7678492.782 19997527.220 10 0 59824 21600.00000 0 -11370783.013 -8065517.653 21390001.128 10 0 59824 22500.00000 0 -8746782.311 -8668756.615 22368225.699 10 0 59824 23400.00000 0 -6084377.977 -9488679.513 22913380.975 10 0 59824 24300.00000 0 -3451466.084 -10513544.765 23015008.651 10 0 59824 25200.00000 0 -913149.155 -11719771.434 22671204.601 10 0 59824 26100.00000 0 1470731.783 -13072820.647 21888650.450 10 0 59824 27000.00000 0 3647838.739 -14528550.237 20682484.035 10 0 59824 27900.00000 0 5575261.081 -16034987.154 19076011.110 10 0 59824 28800.00000 0 7221044.597 -17534445.019 17100263.321 10 0 59824 29700.00000 0 8565263.364 -18965899.954 14793409.967 10 0 59824 30600.00000 0 9600591.056 -20267526.959 12200033.611 10 0 59824 31500.00000 0 10332348.496 -21379292.062 9370282.112 10 0 59824 32400.00000 0 10778025.874 -22245492.709 6358912.002 10 0 59824 33300.00000 0 10966299.587 -22817140.422 3224240.374 10 0 59824 34200.00000 0 10935584.697 -23054085.682 27024.507 10 0 59824 35100.00000 0 10732183.519 -22926795.183 -3170709.808 10 0 59824 36000.00000 0 10408107.982 -22417705.606 -6306869.019 10 0 59824 36900.00000 0 10018667.439 -21522095.412 -9320498.255 10 0 59824 37800.00000 0 9619923.851 -20248436.102 -12152969.822 10 0 59824 38700.00000 0 9266122.293 -18618206.104 -14749130.138 10 0 59824 39600.00000 0 9007206.118 -16665173.091 -17058381.983 10 0 59824 40500.00000 0 8886522.894 -14434172.969 -19035680.245 10 0 59824 41400.00000 0 8938819.441 -11979435.051 -20642420.884 10 0 59824 42300.00000 0 9188612.149 -9362522.402 -21847204.894 10 0 59824 43200.00000 0 9649003.072 -6649972.573 -22626461.622 10 0 59824 44100.00000 0 10320993.352 -3910736.841 -22964918.523 10 0 59824 45000.00000 0 11193324.409 -1213524.772 -22855907.532 10 0 59824 45900.00000 0 12242854.873 1375835.043 -22301501.517 10 0 59824 46800.00000 0 13435458.312 3796907.764 -21312477.706 10 0 59824 47700.00000 0 14727404.543 5996933.501 -19908108.448 10 0 59824 48600.00000 0 16067166.467 7932781.673 -18115783.234 10 0 59824 49500.00000 0 17397576.161 9572497.148 -15970469.369 10 0 59824 50400.00000 0 18658238.745 10896373.994 -13514022.089 10 0 59824 51300.00000 0 19788101.469 11897512.963 -10794358.114 10 0 59824 52200.00000 0 20728068.753 12581840.830 -7864509.495 10 0 59824 53100.00000 0 21423551.860 12967592.637 -4781577.293 10 0 59824 54000.00000 0 21826844.831 13084280.919 -1605606.638 10 0 59824 54900.00000 0 21899225.866 12971197.764 1601593.679 10 0 59824 55800.00000 0 21612695.251 12675515.328 4777662.789 10 0 59824 56700.00000 0 20951276.722 12250067.277 7860905.907 10 0 59824 57600.00000 0 19911827.902 11750906.777 10791494.665 10 0 59824 58500.00000 0 18504326.492 11234745.593 13512625.833 10 0 59824 59400.00000 0 16751621.045 10756383.271 15971616.072 10 0 59824 60300.00000 0 14688657.634 10366235.114 18120912.111 10 0 59824 61200.00000 0 12361215.500 10108062.823 19918997.681 10 0 59824 62100.00000 0 9824204.825 10017002.580 21331181.087 10 0 59824 63000.00000 0 7139597.439 10117972.424 22330249.808 10 0 59824 63900.00000 0 4374076.072 10424524.646 22896981.041 10 0 59824 64800.00000 0 1596498.603 10938190.293 23020499.988 10 0 59824 65700.00000 0 -1124719.059 11648342.464 22698480.236 10 0 59824 66600.00000 0 -3724194.809 12532583.777 21937183.270 10 0 59824 67500.00000 0 -6142041.666 13557641.930 20751336.822 10 0 59824 68400.00000 0 -8326098.706 14680736.519 19163854.315 10 0 59824 69300.00000 0 -10233841.028 15851360.970 17205400.272 10 0 59824 70200.00000 0 -11833891.216 17013406.340 14913809.094 10 0 59824 71100.00000 0 -13107070.799 18107539.542 12333367.128 10 0 59824 72000.00000 0 -14046948.752 19073737.652 9513970.478 10 0 59824 72900.00000 0 -14659864.619 19853873.167 6510173.367 10 0 59824 73800.00000 0 -14964425.385 20394242.350 3380144.067 10 0 59824 74700.00000 0 -14990496.896 20647930.600 184547.590 10 0 59824 75600.00000 0 -14777731.822 20576914.983 -3014624.034 10 0 59824 76500.00000 0 -14373695.650 20153814.460 -6155251.666 10 0 59824 77400.00000 0 -13831669.283 19363212.678 -9176295.840 10 0 59824 78300.00000 0 -13208220.802 18202495.751 -12018986.743 10 0 59824 79200.00000 0 -12560649.010 16682167.635 -14627973.787 10 0 59824 80100.00000 0 -11944407.143 14825627.574 -16952411.596 10 0 59824 81000.00000 0 -11410616.319 12668416.805 -18946960.513 10 0 59824 81900.00000 0 -11003774.749 10256964.025 -20572681.277 10 0 59824 82800.00000 0 -10759760.641 7646880.612 -21797805.528 10 0 59824 83700.00000 0 -10704214.434 4900875.558 -22598366.345 10 0 59824 84600.00000 0 -10851369.931 2086376.354 -22958675.788 10 0 59824 85500.00000 0 -11203384.885 -727045.229 -22871639.434 10 0 59825 0.00000 0 -11750200.264 -3470335.052 -22338901.299 10 0 59825 900.00000 0 -12469935.222 -6077596.540 -21370815.488 10 0 59825 1800.00000 0 -13329800.820 -8488594.633 -19986245.604 10 0 59825 2700.00000 0 -14287495.004 -10651024.060 -18212194.709 10 0 59825 3600.00000 0 -15293019.031 -12522443.528 -16083273.673 10 0 59825 4500.00000 0 -16290838.323 -14071796.717 -13641018.363 10 0 59825 5400.00000 0 -17222295.594 -15280456.906 -10933069.515 10 0 59825 6300.00000 0 -18028173.239 -16142752.595 -8012232.015 10 0 59825 7200.00000 0 -18651295.619 -16665953.600 -4935433.009 10 0 59825 8100.00000 0 -19039060.223 -16869720.215 -1762600.293 10 0 59825 9000.00000 0 -19145789.886 -16785040.925 1444515.933 10 0 59825 9900.00000 0 -18934806.153 -16452705.783 4623553.677 10 0 59825 10800.00000 0 -18380136.045 -15921382.218 7712757.569 10 0 59825 11700.00000 0 -17467780.393 -15245376.565 10652180.607 10 0 59825 12600.00000 0 -16196490.741 -14482177.416 13384845.424 10 0 59825 13500.00000 0 -14578022.831 -13689885.604 15857842.652 10 0 59825 14400.00000 0 -12636856.657 -12924639.621 18023345.652 10 0 59825 15300.00000 0 -10409395.482 -12238144.825 19839522.874 10 0 59825 16200.00000 0 -7942677.615 -11675409.701 21271331.608 10 0 59825 17100.00000 0 -5292654.606 -11272783.207 22291179.353 10 0 59825 18000.00000 0 -2522107.091 -11056374.244 22879441.658 10 0 59825 18900.00000 0 301716.108 -11040918.132 23024828.041 10 0 59825 19800.00000 0 3109639.165 -11229136.329 22724590.230 10 0 59825 20700.00000 0 5833177.084 -11611615.305 21984569.627 10 0 59825 21600.00000 0 8407123.824 -12167209.158 20819083.577 10 0 59825 22500.00000 0 10772005.633 -12863949.159 19250652.541 10 0 59825 23400.00000 0 12876299.824 -13660422.675 17309572.942 10 0 59825 24300.00000 0 14678328.802 -14507564.615 15033342.936 10 0 59825 25200.00000 0 16147752.047 -15350787.499 12465950.924 10 0 59825 26100.00000 0 17266594.920 -16132362.014 9657039.126 10 0 59825 27000.00000 0 18029771.961 -16793949.223 6660956.933 10 0 59825 27900.00000 0 18445082.948 -17279178.823 3535720.931 10 0 59825 28800.00000 0 18532681.596 -17536165.370 341900.710 10 0 59825 29700.00000 0 18324038.787 -17519856.360 -2858548.800 10 0 59825 30600.00000 0 17860443.295 -17194112.531 -6003486.295 10 0 59825 31500.00000 0 17191102.563 -16533431.458 -9031791.103 10 0 59825 32400.00000 0 16370923.165 -15524240.018 -11884554.565 10 0 59825 33300.00000 0 15458064.344 -14165699.164 -14506232.172 10 0 59825 34200.00000 0 14511367.980 -12469984.800 -16845733.221 10 0 59825 35100.00000 0 13587773.817 -10462030.532 -18857426.050 10 0 59825 36000.00000 0 12739829.707 -8178740.769 -20502038.362 10 0 59825 36900.00000 0 12013402.804 -5667705.158 -21747434.230 10 0 59825 37800.00000 0 11445689.263 -2985466.461 -22569251.824 10 0 59825 38700.00000 0 11063607.401 -195412.962 -22951388.701 10 0 59825 39600.00000 0 10882643.082 2634617.295 -22886324.496 10 0 59825 40500.00000 0 10906196.790 5434920.975 -22375274.182 10 0 59825 41400.00000 0 11125460.489 8136594.909 -21428168.423 10 0 59825 42300.00000 0 11519829.771 10674171.177 -20063461.082 10 0 59825 43200.00000 0 12057833.782 12988111.690 -18307767.434 10 0 59825 44100.00000 0 12698543.305 15027057.962 -16195340.180 10 0 59825 45000.00000 0 13393396.742 16749742.016 -13767393.700 10 0 59825 45900.00000 0 14088365.835 18126478.832 -11071290.278 10 0 59825 46800.00000 0 14726368.328 19140178.574 -8159604.845 10 0 59825 47700.00000 0 15249824.209 19786837.263 -5089087.572 10 0 59825 48600.00000 0 15603246.134 20075486.943 -1919545.668 10 0 59825 49500.00000 0 15735753.290 20027609.445 1287332.608 10 0 59825 50400.00000 0 15603401.571 19676040.617 4469187.490 10 0 59825 51300.00000 0 15171231.021 19063413.534 7564206.254 10 0 59825 52200.00000 0 14414943.912 18240208.446 10512326.292 10 0 59825 53100.00000 0 13322142.895 17262493.525 13256398.862 10 0 59825 54000.00000 0 11893077.463 16189453.005 15743291.015 10 0 59825 54900.00000 0 10140867.890 15080807.537 17924904.871 10 0 59825 55800.00000 0 8091197.788 13994235.487 19759095.406 10 0 59825 56700.00000 0 5781488.468 12982903.025 21210470.370 10 0 59825 57600.00000 0 3259589.571 12093205.679 22251058.434 10 0 59825 58500.00000 0 582040.190 11362814.647 22860834.310 10 0 59825 59400.00000 0 -2188028.082 10819108.113 23028092.266 10 0 59825 60300.00000 0 -4983260.454 10478051.592 22749662.209 10 0 59825 61200.00000 0 -7734623.919 10343572.794 22030965.067 10 0 59825 62100.00000 0 -10374024.447 10407456.061 20885906.947 10 0 59825 63000.00000 0 -12836890.035 10649760.245 19336614.038 10 0 59825 63900.00000 0 -15064614.499 11039742.449 17413012.905 10 0 59825 64800.00000 0 -17006762.502 11537249.342 15152263.311 10 0 59825 65700.00000 0 -18622945.752 12094518.470 12598053.240 10 0 59825 66600.00000 0 -19884293.325 12658314.965 9799768.332 10 0 59825 67500.00000 0 -20774455.470 13172314.863 6811550.303 10 0 59825 68400.00000 0 -21290099.159 13579635.670 3691261.151 10 0 59825 69300.00000 0 -21440874.336 13825408.142 499372.146 10 0 59825 70200.00000 0 -21248851.780 13859280.971 -2702201.735 10 0 59825 71100.00000 0 -20747455.451 13637752.301 -5851299.805 10 0 59825 72000.00000 0 -19979933.453 13126228.700 -8886722.874 10 0 59825 72900.00000 0 -18997431.310 12300723.197 -11749426.006 10 0 59825 73800.00000 0 -17856748.225 11149118.762 -14383673.165 10 0 59825 74700.00000 0 -16617870.706 9671941.725 -16738130.505 10 0 59825 75600.00000 0 -15341387.548 7882610.088 -18766876.259 10 0 59825 76500.00000 0 -14085895.485 5807143.793 -20430306.696 10 0 59825 77400.00000 0 -12905505.434 3483346.816 -21695919.570 10 0 59825 78300.00000 0 -11847555.116 959493.309 -22538959.036 10 0 59825 79200.00000 0 -10950625.167 -1707428.888 -22942908.677 10 0 59825 80100.00000 0 -10242943.082 -4453845.102 -22899822.353 10 0 59825 81000.00000 0 -9741242.794 -7212002.983 -22410485.863 10 0 59825 81900.00000 0 -9450128.320 -9912563.778 -21484405.779 10 0 59825 82800.00000 0 -9361968.393 -12487267.494 -20139625.341 10 0 59825 83700.00000 0 -9457326.290 -14871560.552 -18402370.812 10 0 59825 84600.00000 0 -9705906.118 -17007075.923 -16306535.188 10 0 59825 85500.00000 0 -10067974.712 -18843861.783 -13893009.604 10 0 59826 0.00000 0 -10496197.797 -20342265.374 -11208876.184 10 0 59826 900.00000 0 -10937811.592 -21474394.253 -8306477.339 10 0 59826 1800.00000 0 -11337035.875 -22225092.363 -5242384.338 10 0 59826 2700.00000 0 -11637625.580 -22592393.891 -2076281.593 10 0 59826 3600.00000 0 -11785450.970 -22587435.316 1130206.818 10 0 59826 4500.00000 0 -11730996.217 -22233832.149 4314725.633 10 0 59826 5400.00000 0 -11431669.837 -21566548.586 7415407.088 10 0 59826 6300.00000 0 -10853828.814 -20630309.804 10372075.329 10 0 59826 7200.00000 0 -9974430.903 -19477625.665 13127412.617 10 0 59826 8100.00000 0 -8782245.628 -18166510.599 15628064.788 10 0 59826 9000.00000 0 -7278573.417 -16757996.561 17825665.027 10 0 59826 9900.00000 0 -5477443.139 -15313544.004 19677757.016 10 0 59826 10800.00000 0 -3405280.129 -13892459.255 21148600.968 10 0 59826 11700.00000 0 -1100058.617 -12549425.722 22209848.513 10 0 59826 12600.00000 0 1390026.246 -11332250.962 22841075.041 10 0 59826 13500.00000 0 4008312.235 -10279922.157 23030160.822 10 0 59826 14400.00000 0 6691777.994 -9421049.436 22773514.896 10 0 59826 15300.00000 0 9373419.067 -8772760.359 22076138.374 10 0 59826 16200.00000 0 11984795.327 -8340090.175 20951526.477 10 0 59826 17100.00000 0 14458646.201 -8115892.226 19421411.152 10 0 59826 18000.00000 0 16731467.187 -8081271.580 17515348.797 10 0 59826 18900.00000 0 18745942.610 -8206523.577 15270160.085 10 0 59826 19800.00000 0 20453135.152 -8452538.232 12729231.464 10 0 59826 20700.00000 0 21814342.124 -8772612.204 9941690.414 10 0 59826 21600.00000 0 22802541.856 -9114592.978 6961468.917 10 0 59826 22500.00000 0 23403370.004 -9423265.842 3846271.854 10 0 59826 23400.00000 0 23615584.643 -9642883.727 656469.223 10 0 59826 24300.00000 0 23451000.086 -9719733.494 -2546067.239 10 0 59826 25200.00000 0 22933891.326 -9604630.173 -5699160.978 10 0 59826 26100.00000 0 22099893.153 -9255233.144 -8741537.893 10 0 59826 27000.00000 0 20994439.310 -8638085.210 -11614020.340 10 0 59826 27900.00000 0 19670806.561 -7730286.722 -14260684.196 10 0 59826 28800.00000 0 18187845.457 -6520732.026 -16629955.696 10 0 59826 29700.00000 0 16607493.060 -5010853.703 -18675625.921 10 0 59826 30600.00000 0 14992172.307 -3214840.731 -20357762.338 10 0 59826 31500.00000 0 13402187.772 -1159318.974 -21643498.662 10 0 59826 32400.00000 0 11893227.837 1117494.894 -22507686.914 10 0 59826 33300.00000 0 10514078.879 3567132.538 -22933398.156 10 0 59826 34200.00000 0 9304648.181 6132651.583 -22912261.465 10 0 59826 35100.00000 0 8294379.190 8750778.494 -22444633.972 10 0 59826 36000.00000 0 7501125.979 11354327.761 -21539598.175 10 0 59826 36900.00000 0 6930534.324 13874796.469 -20214786.212 10 0 59826 37800.00000 0 6575955.058 16245025.744 -18496034.366 10 0 59826 38700.00000 0 6418892.662 18401817.542 -16416874.502 10 0 59826 39600.00000 0 6429969.109 20288396.883 -14017872.610 10 0 59826 40500.00000 0 6570360.894 21856616.208 -11345827.844 10 0 59826 41400.00000 0 6793646.890 23068809.464 -8452848.357 10 0 59826 42300.00000 0 7047987.131 23899218.377 -5395323.016 10 0 59826 43200.00000 0 7278538.498 24334931.805 -2232810.149 10 0 59826 44100.00000 0 7430003.360 24376299.835 973133.799 10 0 59826 45000.00000 0 7449201.774 24036806.740 4160161.563 10 0 59826 45900.00000 0 7287557.242 23342410.004 7266353.780 10 0 59826 46800.00000 0 6903390.097 22330375.161 10231424.621 10 0 59826 47700.00000 0 6263921.249 21047657.361 12997890.398 10 0 59826 48600.00000 0 5346901.762 19548899.357 15512178.487 10 0 59826 49500.00000 0 4141799.817 17894131.184 17725655.584 10 0 59826 50400.00000 0 2650495.645 16146268.756 19595556.212 10 0 59826 51300.00000 0 887455.600 14368516.198 21085794.855 10 0 59826 52200.00000 0 -1120621.691 12621780.001 22167647.580 10 0 59826 53100.00000 0 -3335672.347 10962201.991 22820291.596 10 0 59826 54000.00000 0 -5709611.793 9438912.415 23031193.932 10 0 59826 54900.00000 0 -8186101.811 8092095.049 22796343.120 10 0 59826 55800.00000 0 -10702667.920 6951443.033 22120320.373 10 0 59826 56700.00000 0 -13193080.847 6035067.985 21016209.463 10 0 59826 57600.00000 0 -15589905.154 5348906.267 19505347.046 10 0 59826 58500.00000 0 -17827111.128 4886646.086 17616917.802 10 0 59826 59400.00000 0 -19842643.357 4630177.744 15387401.317 10 0 59826 60300.00000 0 -21580840.854 4550547.972 12859880.099 10 0 59826 61200.00000 0 -22994609.152 4609378.562 10083220.739 10 0 59826 62100.00000 0 -24047254.640 4760690.222 7111142.533 10 0 59826 63000.00000 0 -24713904.792 4953055.566 4001190.152 10 0 59826 63900.00000 0 -24982454.594 5131991.177 813629.175 10 0 59826 64800.00000 0 -24853998.914 5242488.249 -2389715.041 10 0 59826 65700.00000 0 -24342731.641 5231574.983 -5546653.157 10 0 59826 66600.00000 0 -23475314.669 5050802.119 -8595839.160 10 0 59826 67500.00000 0 -22289742.028 4658545.625 -11477965.579 10 0 59826 68400.00000 0 -20833745.796 4022027.839 -14136922.912 10 0 59826 69300.00000 0 -19162809.916 3118969.847 -16520899.949 10 0 59826 70200.00000 0 -17337874.825 1938803.197 -18583402.796 10 0 59826 71100.00000 0 -15422829.001 483387.402 -20284171.905 10 0 59826 72000.00000 0 -13481892.869 -1232799.354 -21589978.314 10 0 59826 72900.00000 0 -11577005.115 -3183006.728 -22475282.789 10 0 59826 73800.00000 0 -9765321.485 -5329083.558 -22922744.266 10 0 59826 74700.00000 0 -8096931.546 -7622839.192 -22923566.956 10 0 59826 75600.00000 0 -6612889.556 -10007839.153 -22477678.798 10 0 59826 76500.00000 0 -5343642.311 -12421560.867 -21593737.277 10 0 59826 77400.00000 0 -4307919.992 -14797819.589 -20288962.152 10 0 59826 78300.00000 0 -3512136.222 -17069363.072 -18588798.142 10 0 59826 79200.00000 0 -2950321.810 -19170526.128 -16526414.164 10 0 59826 80100.00000 0 -2604593.899 -21039833.382 -14142049.075 10 0 59826 81000.00000 0 -2446139.228 -22622440.729 -11482217.213 10 0 59826 81900.00000 0 -2436668.228 -23872312.755 -8598789.847 10 0 59826 82800.00000 0 -2530276.601 -24754044.571 -5547971.533 10 0 59826 83700.00000 0 -2675633.586 -25244251.830 -2389192.404 10 0 59826 84600.00000 0 -2818402.325 -25332471.189 816060.796 10 0 59826 85500.00000 0 -2903788.122 -25021534.410 4005450.830 99